Temp
96 98 97 98 96 94 90 88 87 86 87 86 83 84 84 84 86 87 87 84 84 86 84 85 80 82 81 81 79 81 78 79 79 76 77 78 82 81 82 83 82 83 85
95 95 95 96 95 92 89 87 86 86 86 86 83 84 85 86 86 87 85 84 85 84 85 83 80 80 78 79 81 79 76 76 79 74 73 71 75 78 83 80 81 80 82
95 94 94 94 95 91 88 87 85 85 85 86 85 85 86 86 82 83 83 84 86 86 84 85 83 81 81 80 81 80 79 74 77 79 74 69 68 73 78 78 77 78 77
98 98 96 94 94 92 91 87 86 85 85 85 85 84 83 83 85 86 85 85 87 87 85 85 83 81 81 80 79 80 78 76 73 77 80 78 75 69 69 75 76 77 78
99 99 98 95 96 95 92 89 85 85 85 84 84 84 84 86 87 87 84 84 84 88 85 84 84 82 82 79 79 78 77 77 75 75 76 76 75 74 71 68 71 75 76
101 100 101 98 96 97 94 91 85 83 84 84 84 83 82 83 85 85 83 84 84 84 86 85 83 82 82 79 78 78 79 77 76 75 75 74 73 72 72 69 71 72 74
102 99 98 98 94 93 93 92 85 83 84 85 84 83 83 83 82 85 85 83 84 84 82 83 81 81 80 80 78 76 77 76 76 76 74 75 75 76 74 72 70 70 73
101 100 98 98 96 94 92 91 85 83 84 84 84 83 83 86 86 85 86 86 86 86 82 83 82 81 80 80 78 77 77 76 76 75 75 74 75 76 75 73 70 67 69
102 102 101 100 98 94 91 90 86 84 84 85 84 84 84 83 85 85 84 87 84 86 83 82 81 81 80 78 78 77 76 76 76 76 76 75 75 76 75 74 73 71 64
103 103 103 100 99 98 94 92 89 85 85 86 85 85 85 84 85 85 84 84 85 84 82 81 81 80 79 79 78 76 78 76 76 76 75 74 75 74 75 74 73 71 69
104 104 103 102 99 99 96 93 90 87 86 86 86 85 85 86 84 86 85 84 84 83 80 80 80 80 79 78 76 76 76 75 74 75 75 74 75 73 74 74 73 72 71
106 106 105 103 100 97 97 94 93 91 89 88 86 85 85 85 85 84 86 86 83 82 80 80 79 79 78 78 76 75 77 76 74 74 74 74 77 73 73 73 72 72 71
103 105 104 101 99 97 94 94 94 94 93 89 88 86 85 85 84 84 84 85 84 82 82 80 78 78 78 77 76 76 76 76 74 75 74 74 74 73 73 73 72 71 71
98 101 102 100 100 97 93 93 94 96 94 92 89 86 85 85 85 85 84 85 84 82 80 79 78 78 78 78 77 77 76 75 76 76 75 75 74 73 72 71 69 69 68
100 96 100 99 98 96 92 93 94 93 94 90 88 87 86 85 85 84 84 84 84 82 80 79 78 78 78 80 76 77 76 74 75 75 76 76 76 73 70 71 70 68 66
98 99 96 97 96 96 93 92 93 93 92 89 88 87 86 85 85 84 84 83 83 81 79 78 77 77 80 73 71 75 76 76 74 74 75 76 74 70 67 67 66 67 64
97 99 97 94 94 97 94 92 92 93 91 88 88 87 86 84 84 84 83 82 80 80 78 77 77 76 76 69 68 71 76 75 75 74 74 75 76 71 70 66 65 65 65
100 100 103 100 98 102 101 95 95 91 89 88 88 87 86 85 84 83 82 81 81 78 77 77 76 76 77 64 65 68 73 72 74 74 75 73 73 71 69 68 67 67 67
100 100 105 105 98 98 97 93 92 91 90 88 88 88 87 84 83 81 81 80 78 77 76 77 76 75 76 62 62 65 70 69 71 73 74 74 73 69 63 67 66 66 66
101 101 102 104 105 97 100 92 91 89 88 89 89 88 86 84 82 81 80 81 80 77 77 76 75 71 73 61 60 63 68 67 70 72 72 64 69 61 60 66 67 65 66
99 100 100 99 98 96 96 89 89 87 89 90 89 87 85 83 83 80 79 78 77 76 74 73 73 74 72 72 58 58 69 70 69 69 69 72 59 57 56 58 66 65 63
98 101 98 96 95 93 90 87 85 87 87 87 86 84 83 84 83 78 77 75 73 73 72 71 71 73 72 64 56 56 57 63 69 70 70 69 58 54 54 56 62 58 59
94 96 97 91 91 91 87 85 84 85 85 84 82 81 81 80 78 76 75 72 73 71 69 70 70 69 72 72 57 53 54 57 65 66 57 53 53 53 54 56 60 57 62
91 92 89 87 85 86 87 84 84 83 82 81 80 80 78 75 75 74 75 73 71 70 70 71 72 71 71 71 68 67 61 57 62 58 60 61 62 62 63 61 58 62 64
86 87 84 83 84 84 83 84 83 82 80 80 77 75 75 73 66 60 58 71 64 64 72 73 74 72 72 72 65 64 66 66 64 65 68 64 65 65 64 65 66 65 64
82 80 77 76 77 80 79 79 81 81 78 75 76 74 71 71 68 66 62 47 48 46 46 50 67 60 53 48 47 47 48 51 56 64 66 65 66 66 63 63 64 63 63
MSLP
1003.89 1004.62 1005.50 1006.31 1007.33 1008.20 1009.12 1010.04 1010.83 1011.38 1012.01 1012.58 1013.21 1013.58 1013.83 1014.02 1014.21 1014.00 1014.22 1014.62 1014.93 1015.36 1015.42 1015.53 1015.80 1015.83 1016.22 1016.61 1016.89 1017.14 1017.19 1016.90 1016.87 1016.96 1016.52 1016.22 1016.23 1016.31 1016.15 1016.08 1016.33 1016.59 1016.63
1002.96 1003.88 1004.70 1005.58 1006.53 1007.57 1008.57 1009.60 1010.39 1011.07 1011.63 1012.26 1012.83 1013.07 1013.21 1013.22 1013.41 1013.51 1013.80 1014.20 1014.62 1014.84 1015.09 1015.29 1015.77 1015.95 1016.24 1016.52 1016.95 1017.23 1017.47 1017.29 1017.05 1017.22 1016.98 1016.62 1016.63 1016.46 1016.39 1016.57 1016.91 1017.12 1016.95
1001.89 1002.86 1003.88 1004.86 1005.73 1006.83 1007.93 1008.92 1009.93 1010.66 1011.36 1011.85 1012.36 1012.70 1012.63 1012.80 1013.39 1013.34 1013.69 1013.95 1014.00 1014.26 1014.76 1015.02 1015.37 1015.87 1016.07 1016.51 1016.82 1017.19 1017.33 1017.41 1017.28 1017.24 1017.38 1017.01 1017.11 1016.92 1016.75 1016.97 1017.19 1017.30 1017.33
1000.66 1001.63 1002.73 1003.99 1005.00 1006.01 1007.17 1008.41 1009.35 1010.27 1011.04 1011.53 1011.83 1012.06 1012.39 1012.60 1012.50 1012.57 1012.69 1012.92 1013.43 1013.90 1014.43 1014.77 1015.19 1015.71 1016.21 1016.56 1016.83 1017.14 1017.46 1017.54 1017.55 1017.27 1017.24 1017.37 1017.56 1017.52 1017.45 1017.36 1017.32 1017.30 1017.55
999.18 1000.31 1001.38 1002.70 1004.00 1005.09 1006.28 1007.50 1008.62 1009.64 1010.50 1011.11 1011.50 1011.73 1011.98 1012.22 1012.17 1012.26 1012.70 1012.96 1013.40 1013.66 1014.25 1014.64 1015.04 1015.65 1016.05 1016.36 1016.73 1017.33 1017.58 1017.65 1017.59 1017.54 1017.38 1017.55 1017.44 1017.53 1017.63 1017.66 1017.55 1017.52 1017.33
997.55 998.92 1000.04 1001.34 1002.62 1003.87 1005.12 1006.39 1007.66 1008.77 1009.66 1010.56 1011.08 1011.46 1011.58 1011.67 1011.77 1011.93 1012.55 1012.97 1013.40 1013.76 1013.90 1014.24 1014.68 1015.01 1015.64 1016.03 1016.46 1017.07 1017.42 1017.71 1017.71 1017.68 1017.61 1017.53 1017.47 1017.52 1017.55 1017.68 1017.62 1017.40 1017.19
996.05 997.38 998.65 999.85 1001.34 1002.48 1003.82 1005.18 1006.61 1007.77 1008.75 1009.64 1010.40 1010.89 1011.13 1011.31 1011.45 1011.88 1012.03 1012.46 1012.83 1013.34 1013.67 1013.95 1014.46 1015.10 1015.40 1015.58 1015.85 1016.24 1017.14 1017.32 1017.73 1017.76 1017.81 1017.52 1017.37 1017.28 1017.42 1017.78 1017.85 1017.77 1017.30
995.28 996.23 997.35 998.60 999.99 1001.39 1002.65 1003.93 1005.44 1006.77 1007.78 1008.67 1009.49 1010.15 1010.47 1010.74 1011.01 1011.39 1011.59 1011.79 1012.08 1012.37 1013.06 1013.74 1014.41 1014.84 1015.30 1015.54 1015.77 1015.86 1016.26 1016.66 1017.21 1017.73 1017.72 1017.63 1017.48 1017.36 1017.41 1017.68 1017.93 1018.06 1017.80
994.37 995.15 996.22 997.39 998.76 1000.21 1001.51 1002.74 1004.24 1005.75 1006.88 1007.68 1008.54 1009.06 1009.61 1010.07 1010.40 1010.69 1011.15 1011.51 1011.72 1011.92 1012.60 1013.34 1014.05 1014.65 1015.18 1015.48 1016.30 1016.64 1016.47 1016.27 1016.73 1017.22 1017.50 1017.64 1017.64 1017.49 1017.48 1017.46 1017.68 1017.92 1018.32
992.94 993.84 995.08 996.42 997.68 999.09 1000.52 1001.91 1003.23 1004.60 1005.77 1006.65 1007.35 1007.98 1008.51 1009.22 1009.72 1010.18 1010.63 1010.90 1011.28 1011.65 1012.49 1013.05 1013.60 1014.31 1014.87 1015.52 1015.91 1016.16 1016.36 1016.42 1016.59 1016.94 1017.12 1017.24 1017.41 1017.60 1017.49 1017.45 1017.64 1017.78 1018.05
991.60 992.32 993.47 994.75 996.33 997.90 999.45 1000.90 1002.28 1003.61 1004.75 1005.64 1006.34 1007.06 1007.66 1008.28 1009.06 1009.37 1009.83 1010.21 1010.77 1011.17 1012.02 1012.66 1013.27 1013.91 1014.51 1015.04 1015.50 1015.82 1015.93 1016.08 1016.25 1016.44 1016.71 1016.97 1017.33 1017.55 1017.45 1017.51 1017.61 1017.78 1017.78
990.58 990.91 992.10 993.60 995.32 996.83 998.26 999.77 1001.18 1002.42 1003.48 1004.43 1005.39 1005.98 1006.69 1007.39 1008.05 1008.66 1008.81 1009.42 1010.18 1010.77 1011.65 1012.31 1012.84 1013.35 1013.92 1014.40 1014.97 1015.43 1015.53 1015.73 1015.71 1016.10 1016.41 1016.78 1016.96 1017.27 1017.44 1017.39 1017.35 1017.43 1017.47
990.16 990.56 991.36 992.52 994.26 995.71 997.11 998.45 999.85 1001.13 1002.33 1003.54 1004.34 1005.05 1005.73 1006.42 1007.00 1007.55 1008.21 1008.74 1009.46 1010.18 1010.84 1011.41 1011.94 1012.54 1013.10 1013.70 1014.35 1014.82 1015.04 1015.21 1015.37 1015.58 1015.86 1016.21 1016.52 1016.69 1016.80 1017.03 1017.11 1017.28 1017.43
989.96 990.89 991.57 992.40 993.10 994.39 995.69 996.99 998.37 999.62 1001.07 1002.23 1003.18 1003.93 1004.68 1005.27 1005.88 1006.68 1007.50 1007.98 1008.60 1009.28 1009.91 1010.55 1011.37 1012.01 1012.46 1012.99 1013.67 1014.22 1014.48 1014.55 1014.76 1015.04 1015.37 1015.52 1015.72 1015.96 1016.51 1016.76 1016.97 1017.01 1017.28
989.84 990.59 991.42 992.19 992.97 993.84 994.96 996.17 997.21 998.35 999.51 1000.93 1002.02 1002.69 1003.54 1004.37 1005.20 1006.02 1006.65 1007.29 1007.92 1008.51 1009.43 1010.32 1010.90 1011.31 1011.99 1012.45 1012.84 1013.38 1013.81 1014.08 1014.24 1014.49 1014.78 1015.15 1015.23 1015.45 1015.82 1016.27 1016.54 1016.89 1017.01
989.69 990.19 990.93 991.69 992.28 992.94 994.05 995.15 996.27 997.30 998.37 999.63 1000.58 1001.67 1002.76 1003.61 1004.33 1005.17 1005.85 1006.59 1007.22 1008.03 1008.90 1009.61 1010.33 1011.01 1011.48 1011.90 1012.50 1012.82 1013.46 1013.67 1013.82 1014.16 1014.17 1014.47 1014.89 1015.21 1015.49 1015.91 1016.10 1016.18 1016.54
989.09 989.48 990.44 991.29 992.00 992.44 993.37 994.61 995.46 996.37 997.55 998.50 999.62 1000.68 1001.66 1002.60 1003.51 1004.38 1005.17 1005.93 1006.69 1007.64 1008.54 1009.34 1010.02 1010.70 1011.15 1011.33 1011.85 1012.35 1012.68 1013.16 1013.29 1013.43 1013.69 1013.99 1014.53 1014.94 1015.37 1015.42 1015.56 1015.76 1016.02
988.30 988.81 989.41 990.56 991.38 991.90 992.77 993.86 994.98 995.89 996.82 997.75 998.78 999.74 1000.68 1001.72 1002.80 1003.77 1004.62 1005.47 1006.27 1007.17 1008.04 1008.79 1009.48 1010.14 1010.60 1010.94 1011.54 1011.83 1012.26 1012.48 1012.54 1012.80 1012.89 1013.25 1013.68 1014.24 1014.82 1015.14 1015.29 1015.34 1015.37
988.52 988.40 988.86 989.43 990.57 991.22 991.97 993.06 994.39 995.42 996.39 997.16 997.98 998.92 999.96 1001.19 1002.36 1003.39 1004.27 1005.07 1005.89 1006.81 1007.51 1008.35 1009.17 1009.77 1010.11 1010.73 1011.08 1011.75 1012.20 1012.29 1012.39 1012.32 1012.61 1012.78 1013.32 1013.78 1014.49 1014.78 1014.83 1014.95 1014.92
987.96 988.14 988.50 988.93 989.62 990.43 991.38 992.31 993.56 994.84 995.69 996.58 997.49 998.70 999.91 1001.14 1002.34 1003.38 1004.28 1005.03 1005.90 1006.80 1007.46 1008.24 1008.83 1009.40 1009.82 1010.21 1010.67 1011.28 1011.55 1012.02 1012.04 1011.93 1012.12 1012.49 1013.03 1013.58 1014.15 1014.44 1014.38 1014.43 1014.27
987.19 987.58 988.15 988.63 989.15 990.04 990.86 991.86 992.92 994.07 995.20 996.48 997.50 998.67 1000.01 1001.21 1002.35 1003.41 1004.40 1005.39 1006.40 1007.21 1007.85 1008.29 1008.62 1009.04 1009.64 1010.27 1010.70 1011.10 1011.44 1011.38 1011.48 1011.65 1011.99 1012.25 1012.59 1013.17 1013.89 1014.34 1014.42 1014.20 1013.98
987.35 987.48 988.04 988.80 989.31 990.05 990.99 991.94 993.04 994.20 995.38 996.64 997.77 998.89 1000.12 1001.37 1002.47 1003.47 1004.18 1004.40 1005.58 1007.08 1008.21 1008.60 1008.89 1009.11 1009.49 1009.76 1010.56 1010.92 1011.31 1011.46 1011.41 1011.46 1011.55 1011.81 1012.17 1012.87 1013.45 1014.17 1014.28 1014.31 1014.05
988.67 988.57 988.49 989.41 990.41 990.96 991.49 992.50 993.60 994.65 995.90 997.18 998.40 999.43 1000.43 1001.76 1002.84 1003.86 1004.92 1005.92 1005.78 1006.12 1007.49 1007.89 1008.21 1008.31 1008.87 1009.45 1009.89 1010.32 1010.91 1011.22 1011.34 1011.57 1011.79 1011.84 1011.83 1012.74 1013.26 1013.81 1014.13 1014.06 1013.92
989.37 989.39 989.89 990.77 991.67 992.30 992.84 993.38 994.27 995.30 996.49 997.84 999.03 999.98 1000.94 1002.19 1003.35 1004.47 1005.24 1006.13 1006.10 1006.86 1007.55 1007.95 1007.67 1008.09 1008.56 1009.34 1010.12 1010.50 1010.90 1011.00 1011.15 1011.46 1011.82 1012.15 1012.45 1012.50 1012.59 1013.16 1013.54 1013.50 1013.35
990.73 990.99 991.25 991.93 992.84 993.30 993.84 994.62 995.37 996.08 997.36 998.53 999.79 1000.71 1001.61 1002.67 1004.30 1005.74 1006.68 1006.62 1007.17 1007.74 1008.07 1007.99 1007.45 1007.82 1008.09 1008.67 1009.51 1010.21 1010.55 1010.89 1011.11 1011.27 1011.63 1011.98 1011.95 1011.82 1012.09 1012.18 1012.33 1012.67 1012.80
992.47 992.51 992.76 993.43 994.36 994.88 995.26 995.99 996.51 997.20 998.32 999.53 1000.44 1001.35 1002.26 1003.23 1004.36 1005.46 1006.75 1007.34 1007.83 1007.97 1007.77 1007.44 1007.52 1008.51 1008.42 1009.19 1009.90 1010.36 1010.57 1010.44 1010.42 1010.84 1010.84 1011.18 1011.02 1010.94 1011.09 1011.34 1011.67 1011.99 1012.25
Wind_Speed
19 17 18 17 16 16 14 14 11 10 9 8 8 7 5 5 5 6 6 5 4 6 3 3 4 1 2 4 4 3 4 3 3 3 5 4 4 4 3 3 5 5 5
19 18 18 16 18 15 16 14 12 10 8 7 6 6 9 9 9 9 5 6 7 4 5 6 4 6 4 5 4 4 2 3 3 2 4 2 1 2 2 5 5 5 4
20 20 19 18 17 17 16 15 14 11 11 9 7 6 2 3 4 6 7 10 11 8 7 4 4 3 3 5 4 2 1 3 2 2 2 4 1 1 2 5 5 1 4
21 20 22 20 18 17 17 17 16 14 12 12 8 8 6 5 4 3 4 5 8 6 7 6 6 5 4 4 4 5 2 1 3 2 2 2 0 3 2 1 4 4 5
23 22 23 22 20 18 19 18 18 16 14 13 10 6 8 9 6 4 7 6 5 4 9 6 6 5 3 5 6 5 2 2 2 4 2 1 3 2 1 1 2 3 4
23 22 20 22 22 20 19 19 21 19 17 15 14 11 10 10 5 4 7 5 6 5 5 8 6 7 6 7 5 5 3 1 2 3 4 3 1 0 1 2 3 1 4
21 22 23 21 22 23 21 19 21 19 19 17 17 15 13 11 9 4 5 7 7 8 8 7 8 6 5 6 6 7 4 5 2 2 3 4 3 1 1 2 4 2 3
18 21 22 20 21 23 21 19 22 21 20 20 17 16 16 9 9 8 7 7 5 8 13 9 8 8 7 6 7 8 7 7 5 5 4 3 4 3 2 1 1 4 4
18 21 21 21 19 20 22 21 19 21 21 20 17 17 16 15 12 9 9 5 7 5 13 11 11 10 10 7 6 4 6 4 5 5 5 3 4 3 3 2 0 1 2
26 21 19 21 19 19 19 20 18 21 21 20 18 17 17 16 13 11 10 10 6 8 12 12 12 11 9 7 7 5 4 6 5 4 5 6 1 3 3 3 1 2 3
18 22 22 21 20 19 20 20 20 19 21 20 19 18 17 17 16 13 13 13 10 8 13 13 12 12 10 10 9 6 7 7 6 4 3 3 2 3 3 2 2 2 3
17 18 22 21 21 21 21 22 20 20 21 20 18 19 17 17 17 16 14 13 13 10 12 12 13 13 11 11 11 10 7 9 9 8 6 5 5 7 5 3 5 3 3
6 4 15 21 20 22 21 23 22 22 20 19 19 18 18 18 18 18 17 14 14 12 13 13 14 14 13 12 12 11 9 9 7 7 6 6 6 5 4 3 3 3 4
9 7 3 8 22 23 22 22 23 22 22 21 20 19 19 19 18 16 16 15 16 15 15 14 13 14 14 13 13 13 11 8 8 8 8 8 7 7 6 5 5 4 3
6 11 9 5 6 16 20 19 21 22 22 20 21 19 18 18 16 15 15 15 15 14 13 12 13 14 12 10 14 14 12 9 9 8 8 7 8 6 7 3 3 2 1
9 8 11 8 7 11 18 21 19 21 18 20 21 18 17 17 16 15 15 15 14 13 13 14 13 13 9 13 15 12 10 11 9 9 7 6 6 6 9 8 8 6 4
15 9 12 12 9 10 14 18 20 17 19 17 18 18 17 18 17 16 15 15 14 13 12 12 11 12 11 11 15 15 9 9 10 10 8 7 5 8 7 8 8 8 10
11 7 8 11 12 12 15 13 17 15 17 15 17 17 17 17 17 15 14 13 11 13 11 11 11 11 10 12 11 15 11 6 8 9 10 8 7 8 8 6 5 6 6
9 7 11 12 14 14 13 15 15 17 14 16 14 15 16 16 16 15 14 11 10 10 10 10 11 11 8 9 10 11 7 7 9 8 7 7 9 9 8 6 6 5 6
13 8 9 10 11 16 17 17 17 15 17 14 13 12 14 14 13 12 9 8 8 8 7 9 8 9 7 11 13 11 6 9 8 7 8 10 9 8 10 8 6 7 8
13 11 10 7 6 17 16 17 17 17 15 12 12 13 13 12 11 10 7 6 5 6 6 7 5 6 7 8 11 14 8 8 5 6 6 6 12 10 9 9 6 5 2
6 3 3 3 9 12 11 15 14 12 12 12 13 13 12 9 8 12 10 13 11 7 6 5 4 4 6 9 8 11 11 0 5 4 4 5 6 10 10 8 7 2 2
4 5 1 8 6 6 12 14 12 14 13 14 14 13 12 10 10 10 8 5 7 10 8 7 7 6 6 5 8 10 8 6 1 3 4 8 10 8 7 8 8 5 3
6 6 11 12 10 10 10 12 15 15 15 15 13 13 13 13 11 7 7 6 5 5 6 6 5 4 4 6 5 5 6 6 6 7 5 6 7 7 4 7 7 5 5
8 6 10 11 10 12 13 13 15 16 15 14 12 11 11 11 10 9 5 4 7 3 4 6 5 6 7 6 6 5 4 4 5 5 4 5 5 6 7 6 7 7 6
10 10 12 12 10 11 12 13 13 14 15 13 10 9 9 10 8 8 7 15 9 5 5 4 4 6 13 14 14 11 9 8 8 4 4 5 7 7 4 6 4 4 7
Wind_Direction
189 189 188 181 184 178 175 178 183 184 163 167 178 202 208 199 208 240 149 131 188 208 189 226 242 203 174 146 206 56 335 313 73 342 275 175 148 230 281 57 61 23 106
193 190 182 193 184 183 177 173 183 177 177 180 177 208 200 211 196 214 187 184 194 191 195 220 173 189 151 157 100 73 311 324 100 350 314 274 121 265 117 77 79 25 332
196 183 187 191 186 182 175 174 179 181 180 195 187 219 266 163 185 194 181 186 185 188 180 149 117 120 203 133 141 123 195 335 26 136 292 357 356 251 101 118 94 79 44
193 192 186 187 193 185 176 174 175 184 182 205 207 194 198 239 197 244 205 148 160 168 165 174 159 172 61 133 135 94 41 12 318 196 145 104 352 352 36 135 148 166 135
193 199 189 187 192 188 181 175 176 182 187 198 213 210 186 209 234 204 129 132 131 135 172 155 138 133 153 108 113 123 104 324 306 335 46 114 219 152 301 354 241 247 154
187 191 197 184 188 191 184 181 176 183 186 192 205 224 195 226 204 203 147 154 155 171 173 154 158 150 163 146 140 112 155 47 354 358 329 288 343 113 342 347 344 356 229
193 184 192 191 185 189 188 180 178 183 184 191 197 212 223 208 222 227 184 173 182 173 183 175 157 150 160 156 151 144 172 161 249 325 326 305 327 354 94 37 305 335 316
191 186 188 191 184 188 185 185 178 183 184 189 197 201 216 214 213 197 234 194 207 182 164 170 159 155 173 174 177 166 179 166 172 215 234 322 315 336 355 202 21 336 325
204 190 185 188 189 183 186 184 173 181 185 187 194 201 203 210 208 204 208 216 211 141 161 163 161 180 180 186 154 223 204 134 162 182 195 220 288 326 311 26 154 168 345
195 187 189 185 185 183 181 182 179 179 185 189 192 202 202 200 207 203 207 204 217 159 163 167 171 183 184 177 176 202 213 167 181 187 212 191 218 306 305 258 122 146 154
196 186 184 185 182 180 178 184 182 177 184 190 194 200 202 199 200 204 201 191 203 175 169 173 177 186 187 181 185 204 201 186 181 197 201 146 196 265 284 7 345 280 206
233 195 178 178 177 183 179 182 185 189 188 190 194 200 198 198 197 206 202 194 194 174 169 177 181 188 186 188 186 202 216 192 184 187 180 192 209 213 227 259 260 275 302
125 91 180 175 178 183 182 183 185 189 192 192 196 200 200 198 200 201 206 196 193 182 182 184 188 188 188 188 190 200 210 205 194 193 185 203 214 212 227 230 260 298 293
151 150 142 186 190 184 186 183 185 186 191 192 199 201 199 201 203 201 198 202 194 191 193 191 191 193 190 189 192 198 210 199 200 191 204 202 206 203 202 215 246 246 287
181 157 178 208 203 189 185 186 183 185 186 192 197 202 200 200 201 200 197 201 197 196 192 191 197 196 193 192 193 201 202 201 209 200 204 219 219 151 136 192 185 153 115
238 194 169 186 218 181 178 184 187 185 186 189 195 197 194 194 199 197 197 195 199 188 192 198 198 194 197 192 197 195 202 208 198 218 209 212 155 149 145 160 180 170 182
209 207 171 187 202 180 171 183 191 179 189 187 192 191 186 190 193 191 194 192 191 188 192 197 193 192 200 201 194 194 200 200 208 208 209 209 194 161 173 184 190 205 219
216 203 237 183 190 196 179 171 183 192 188 190 187 188 184 185 184 185 188 190 190 190 187 190 190 193 200 177 193 200 207 215 220 212 210 200 199 185 192 192 212 232 237
267 229 228 249 185 192 184 175 179 191 195 189 184 180 179 175 176 179 188 188 178 186 185 183 188 197 211 183 190 186 204 217 238 230 221 198 212 199 201 201 221 242 254
254 236 227 233 236 188 183 170 178 184 195 189 181 167 161 166 169 177 177 184 175 171 177 182 191 190 203 177 190 185 190 224 229 218 225 219 219 197 187 210 222 243 259
245 232 231 263 238 183 178 171 173 182 181 168 162 152 156 159 157 149 145 141 153 153 172 175 187 177 194 214 194 195 214 225 228 227 231 220 202 192 219 217 254 262 355
325 283 132 225 155 171 154 161 164 151 147 155 149 144 139 147 141 143 152 149 137 137 160 164 199 207 221 222 194 205 214 309 238 240 236 226 164 181 193 194 239 172 355
344 336 323 101 106 105 139 142 136 136 139 138 135 130 134 117 118 122 126 131 145 141 174 188 189 202 204 191 177 173 172 186 179 53 103 124 118 144 154 193 181 189 235
58 72 96 93 99 111 116 117 124 125 127 126 130 130 121 117 118 127 140 152 140 157 178 198 186 163 147 145 161 175 179 160 160 131 130 159 175 180 164 168 206 222 233
87 94 96 105 107 108 114 119 122 122 123 123 120 112 115 105 87 68 27 87 51 31 199 208 184 162 169 160 145 153 157 165 197 186 183 194 206 199 200 203 197 202 219
75 75 79 84 98 107 111 122 122 121 124 124 126 133 124 125 124 124 106 57 62 52 45 31 123 55 89 115 119 114 108 118 134 192 208 216 232 221 195 187 185 181 211